PO-101 (43678 NORAD) Tracking and Keplerian Element Data

This shows tracking and keplerian element data for the satellite.

Feedback or suggestion? Click here.




ElementValue
Catalog43678
NamePO-101
Epoch Orbit2557
Epoch Day108.82610166
Epoch Year2019
RAAN223.3657
Inclination97.8425
Eccentricity0.0011064
Argument of Perigee137.9021
Mean Anonmoly222.3039
Mean Motion14.91545328
Decay Rate5.09E-06
L11 43678U 18084H 19108.82610166 .00000509 00000-0 56411-4 0 9993
L22 43678 97.8425 223.3657 0011064 137.9021 222.3039 14.91545328 25570

Live tracking and technical data element details for PO-101 (NORAD 43678). PO-101 can be tracked NOW for your location showing map with azimuth and elevation plus other details from your city location.

Track the satellite on the map from your city or location and see movement details for azimuth, elevation, latitude, longitude, range, height, and movement on the map or in text.







IsCatalogInMostPopularTable: catalog: 43678, numindb: 85
Update: records affected: 1



GetName: 43678 PO-101

Hit Count: updated at: Sat, 20 Apr 2019 20:28:53 GMT